AVA1408 SKBO-SKRG

Flight info

Callsign AVA1408
Flight time 0h 28m
Altitude 21000
Route VASIL2T VASIL W36 NIRSO NIRSO3C
Aircraft A20N/M-SDE2E3FGHIRWXY/LB1

Departure

Time 2026-05-07 22:42
Airport El Dorado International Airport (SKBO)

Arrival

Time 2026-05-07 23:10
Airport Jose Maria Córdova International Airport (SKRG)
Time Latitude Longitude Altitude Speed Heading
2026-05-07 22:24 4.69912 -74.14491 8365 ft 0 kts 211°
2026-05-07 22:27 4.69913 -74.14491 8365 ft 0 kts 211°
2026-05-07 22:31 4.69918 -74.14488 8365 ft 2 kts 210°
2026-05-07 22:31 4.69932 -74.14479 8366 ft 2 kts 214°
2026-05-07 22:32 4.69946 -74.14470 8365 ft 2 kts 243°
2026-05-07 22:32 4.69949 -74.14461 8366 ft 3 kts 277°
2026-05-07 22:32 4.69946 -74.14459 8366 ft 3 kts 213°
2026-05-07 22:32 4.69952 -74.14457 8366 ft 1 kts
2026-05-07 22:33 4.69950 -74.14460 8366 ft 0 kts 310°
2026-05-07 22:34 4.69953 -74.14464 8366 ft 2 kts 310°
2026-05-07 22:34 4.69968 -74.14481 8366 ft 4 kts 311°
2026-05-07 22:34 4.69994 -74.14511 8365 ft 7 kts 311°
2026-05-07 22:34 4.70027 -74.14553 8365 ft 9 kts 306°
2026-05-07 22:35 4.70077 -74.14564 8366 ft 9 kts 25°
2026-05-07 22:35 4.70131 -74.14527 8366 ft 10 kts 34°
2026-05-07 22:35 4.70192 -74.14484 8366 ft 11 kts 37°
2026-05-07 22:35 4.70258 -74.14431 8367 ft 13 kts 38°
2026-05-07 22:36 4.70329 -74.14372 8367 ft 13 kts 54°
2026-05-07 22:36 4.70385 -74.14305 8367 ft 13 kts 68°
2026-05-07 22:36 4.70349 -74.14225 8367 ft 14 kts 128°
2026-05-07 22:36 4.70287 -74.14146 8367 ft 15 kts 128°
2026-05-07 22:37 4.70220 -74.14060 8367 ft 16 kts 127°
2026-05-07 22:37 4.70149 -74.13963 8367 ft 18 kts 126°
2026-05-07 22:37 4.70073 -74.13862 8367 ft 19 kts 127°
2026-05-07 22:37 4.69994 -74.13758 8367 ft 19 kts 127°
2026-05-07 22:38 4.69911 -74.13648 8367 ft 20 kts 128°
2026-05-07 22:38 4.69824 -74.13534 8368 ft 21 kts 128°
2026-05-07 22:38 4.69735 -74.13416 8368 ft 21 kts 127°
2026-05-07 22:38 4.69646 -74.13296 8368 ft 22 kts 127°
2026-05-07 22:39 4.69552 -74.13170 8368 ft 23 kts 127°
2026-05-07 22:39 4.69455 -74.13042 8368 ft 23 kts 129°
2026-05-07 22:39 4.69353 -74.12911 8368 ft 24 kts 127°
2026-05-07 22:39 4.69253 -74.12779 8368 ft 24 kts 127°
2026-05-07 22:40 4.69197 -74.12649 8369 ft 17 kts 65°
2026-05-07 22:40 4.69229 -74.12540 8368 ft 12 kts 74°
2026-05-07 22:40 4.69291 -74.12509 8369 ft 10 kts 330°
2026-05-07 22:40 4.69303 -74.12532 8369 ft 0 kts 308°
2026-05-07 22:41 4.69304 -74.12534 8369 ft 4 kts 308°
2026-05-07 22:41 4.69498 -74.12780 8366 ft 86 kts 307°
2026-05-07 22:41 4.69805 -74.13191 8367 ft 133 kts 308°
2026-05-07 22:41 4.70473 -74.14077 8370 ft 187 kts 306°
2026-05-07 22:42 4.71248 -74.15132 9187 ft 181 kts 305°
2026-05-07 22:42 4.71741 -74.15813 9808 ft 183 kts 305°
2026-05-07 22:42 4.72784 -74.17230 10658 ft 202 kts 307°
2026-05-07 22:42 4.73391 -74.18006 10959 ft 214 kts 307°
2026-05-07 22:43 4.74695 -74.19690 11284 ft 248 kts 304°
2026-05-07 22:43 4.75260 -74.20738 11494 ft 263 kts 288°
2026-05-07 22:43 4.75511 -74.22648 11667 ft 291 kts 263°
2026-05-07 22:43 4.75136 -74.24752 11680 ft 323 kts 258°
2026-05-07 22:44 4.74644 -74.27040 11679 ft 349 kts 257°
2026-05-07 22:44 4.74125 -74.29443 11677 ft 351 kts 258°
2026-05-07 22:44 4.73623 -74.31837 11675 ft 351 kts 258°
2026-05-07 22:44 4.73137 -74.34212 11679 ft 351 kts 258°
2026-05-07 22:45 4.72654 -74.36612 11679 ft 351 kts 258°
2026-05-07 22:45 4.72170 -74.39035 11843 ft 352 kts 258°
2026-05-07 22:45 4.71688 -74.41451 12537 ft 353 kts 258°
2026-05-07 22:45 4.71201 -74.43859 13237 ft 354 kts 257°
2026-05-07 22:46 4.70567 -74.46254 13764 ft 356 kts 255°
2026-05-07 22:46 4.69921 -74.48646 14291 ft 357 kts 255°
2026-05-07 22:46 4.69272 -74.51059 14814 ft 360 kts 255°
2026-05-07 22:46 4.68622 -74.53482 15341 ft 365 kts 255°
2026-05-07 22:47 4.67953 -74.55973 15867 ft 367 kts 255°
2026-05-07 22:47 4.67290 -74.58444 16395 ft 371 kts 255°
2026-05-07 22:47 4.66626 -74.60948 16921 ft 374 kts 257°
2026-05-07 22:47 4.66199 -74.63499 17443 ft 372 kts 264°
2026-05-07 22:48 4.66111 -74.66107 17971 ft 376 kts 272°
2026-05-07 22:48 4.66222 -74.68754 18503 ft 380 kts 272°
2026-05-07 22:48 4.66322 -74.71415 19028 ft 385 kts 272°
2026-05-07 22:48 4.66416 -74.74106 19558 ft 387 kts 272°
2026-05-07 22:49 4.66508 -74.76793 20078 ft 388 kts 272°
2026-05-07 22:49 4.66602 -74.79527 20502 ft 390 kts 272°
2026-05-07 22:49 4.66789 -74.82235 20636 ft 391 kts 280°
2026-05-07 22:49 4.67638 -74.84813 20679 ft 391 kts 297°
2026-05-07 22:50 4.69193 -74.87030 20675 ft 392 kts 314°
2026-05-07 22:50 4.71323 -74.88741 20682 ft 392 kts 326°
2026-05-07 22:50 4.73588 -74.90257 20678 ft 392 kts 326°
2026-05-07 22:50 4.75884 -74.91792 20678 ft 393 kts 326°
2026-05-07 22:51 4.78149 -74.93314 20676 ft 393 kts 326°
2026-05-07 22:51 4.80426 -74.94853 20677 ft 393 kts 326°
2026-05-07 22:51 4.82695 -74.96393 20676 ft 395 kts 326°
2026-05-07 22:51 4.84954 -74.97927 20676 ft 396 kts 326°
2026-05-07 22:52 4.87231 -74.99475 20676 ft 397 kts 326°
2026-05-07 22:52 4.89516 -75.01029 20678 ft 398 kts 326°
2026-05-07 22:52 4.91805 -75.02585 20677 ft 396 kts 326°
2026-05-07 22:52 4.94089 -75.04138 20677 ft 399 kts 326°
2026-05-07 22:53 4.96395 -75.05706 20681 ft 400 kts 326°
2026-05-07 22:53 4.98691 -75.07267 20678 ft 396 kts 326°
2026-05-07 22:53 5.00979 -75.08823 20680 ft 400 kts 326°
2026-05-07 22:53 5.03302 -75.10403 20678 ft 398 kts 326°
2026-05-07 22:54 5.05591 -75.11960 20677 ft 401 kts 326°
2026-05-07 22:54 5.07898 -75.13529 20677 ft 400 kts 326°
2026-05-07 22:54 5.10202 -75.15097 20676 ft 398 kts 326°
2026-05-07 22:54 5.12465 -75.16637 20677 ft 403 kts 326°
2026-05-07 22:55 5.14770 -75.18294 20696 ft 404 kts 320°
2026-05-07 22:55 5.16798 -75.20161 20926 ft 404 kts 314°
2026-05-07 22:55 5.18702 -75.22295 20996 ft 402 kts 311°
2026-05-07 22:55 5.20569 -75.24416 21000 ft 405 kts 311°
2026-05-07 22:56 5.22432 -75.26524 21001 ft 406 kts 311°
2026-05-07 22:56 5.24296 -75.28631 21001 ft 406 kts 311°
2026-05-07 22:56 5.26183 -75.30763 21001 ft 406 kts 311°
2026-05-07 22:56 5.28052 -75.32877 21000 ft 408 kts 311°
2026-05-07 22:57 5.29927 -75.34998 20996 ft 408 kts 311°
2026-05-07 22:57 5.31835 -75.37131 20793 ft 407 kts 315°
2026-05-07 22:57 5.34043 -75.38876 20310 ft 407 kts 329°
2026-05-07 22:57 5.36661 -75.40020 19380 ft 412 kts 344°
2026-05-07 22:58 5.39504 -75.40477 18465 ft 418 kts 356°
2026-05-07 22:58 5.42382 -75.40557 17962 ft 410 kts 359°
2026-05-07 22:58 5.45197 -75.40582 17375 ft 404 kts 359°
2026-05-07 22:58 5.48039 -75.40644 16632 ft 403 kts 358°
2026-05-07 22:59 5.50812 -75.40748 15964 ft 400 kts 357°
2026-05-07 22:59 5.53588 -75.40883 15428 ft 393 kts 356°
2026-05-07 22:59 5.56285 -75.41027 14861 ft 388 kts 356°
2026-05-07 22:59 5.58935 -75.41174 14566 ft 377 kts 356°
2026-05-07 23:00 5.61529 -75.41319 14413 ft 362 kts 356°
2026-05-07 23:00 5.63940 -75.41454 14225 ft 341 kts 356°
2026-05-07 23:00 5.66276 -75.41585 14054 ft 322 kts 356°
2026-05-07 23:00 5.68445 -75.41706 13898 ft 303 kts 356°
2026-05-07 23:01 5.70480 -75.41819 13755 ft 285 kts 356°
2026-05-07 23:01 5.72395 -75.41925 13559 ft 273 kts 356°
2026-05-07 23:01 5.74296 -75.42031 13193 ft 268 kts 356°
2026-05-07 23:01 5.76102 -75.42131 13084 ft 254 kts 356°
2026-05-07 23:02 5.77811 -75.42218 12980 ft 241 kts 359°
2026-05-07 23:02 5.79491 -75.42217 12630 ft 241 kts 359°
2026-05-07 23:02 5.81174 -75.42215 12400 ft 241 kts 359°
2026-05-07 23:02 5.82854 -75.42214 11986 ft 242 kts 359°
2026-05-07 23:03 5.84528 -75.42214 11788 ft 242 kts 359°
2026-05-07 23:03 5.86157 -75.42212 11727 ft 226 kts 359°
2026-05-07 23:03 5.87662 -75.42193 11733 ft 203 kts
2026-05-07 23:03 5.89003 -75.42155 11683 ft 187 kts
2026-05-07 23:04 5.89731 -75.42144 11620 ft 178 kts 360°
2026-05-07 23:04 5.90944 -75.42145 11396 ft 173 kts 359°
2026-05-07 23:04 5.92138 -75.42153 11289 ft 175 kts 359°
2026-05-07 23:04 5.93371 -75.42161 11077 ft 177 kts 359°
2026-05-07 23:05 5.94582 -75.42169 10865 ft 174 kts 359°
2026-05-07 23:05 5.95790 -75.42176 10651 ft 174 kts 359°
2026-05-07 23:05 5.97010 -75.42185 10423 ft 173 kts 359°
2026-05-07 23:05 5.98212 -75.42193 10200 ft 173 kts 359°
2026-05-07 23:06 5.99377 -75.42201 9992 ft 163 kts 359°
2026-05-07 23:06 6.00475 -75.42208 9773 ft 155 kts 359°
2026-05-07 23:06 6.01558 -75.42215 9567 ft 157 kts 359°
2026-05-07 23:06 6.02663 -75.42222 9356 ft 156 kts 359°
2026-05-07 23:07 6.03738 -75.42229 9149 ft 156 kts 359°
2026-05-07 23:07 6.04818 -75.42236 8947 ft 155 kts 359°
2026-05-07 23:07 6.05898 -75.42243 8736 ft 155 kts 359°
2026-05-07 23:07 6.06966 -75.42250 8535 ft 154 kts 359°
2026-05-07 23:08 6.08052 -75.42257 8307 ft 154 kts 359°
2026-05-07 23:08 6.09116 -75.42264 8119 ft 151 kts 359°
2026-05-07 23:08 6.10169 -75.42270 8040 ft 154 kts 359°
2026-05-07 23:08 6.11244 -75.42277 7848 ft 153 kts 359°
2026-05-07 23:09 6.12304 -75.42284 7575 ft 152 kts 359°
2026-05-07 23:09 6.13349 -75.42289 7353 ft 150 kts 359°
2026-05-07 23:09 6.14408 -75.42295 7192 ft 153 kts 359°
2026-05-07 23:09 6.15435 -75.42301 7054 ft 142 kts 359°
2026-05-07 23:10 6.16235 -75.42313 7044 ft 85 kts 359°
2026-05-07 23:10 6.16635 -75.42313 7048 ft 41 kts
2026-05-07 23:10 6.16861 -75.42361 7051 ft 12 kts 294°
2026-05-07 23:10 6.16855 -75.42414 7050 ft 9 kts 273°
2026-05-07 23:11 6.16883 -75.42476 7049 ft 11 kts 301°
2026-05-07 23:11 6.16945 -75.42540 7044 ft 14 kts 323°
2026-05-07 23:11 6.17044 -75.42591 7041 ft 17 kts 334°
2026-05-07 23:11 6.17087 -75.42640 7041 ft 5 kts 287°
2026-05-07 23:12 6.17099 -75.42675 7039 ft 1 kts 283°
2026-05-07 23:12 6.17100 -75.42689 7038 ft 2 kts 272°
2026-05-07 23:12 6.17101 -75.42693 7038 ft 0 kts 281°